owner,sensor,date,latitude,longitude,vertical_datum,sea_water_practical_salinity,qcFlag 
TABS,ioos:station:wmo:42043:1,2009-11-01T00:00:00Z,28.9818,-94.9186,2.0,7.97,11111222 
TABS,ioos:station:wmo:42043:1,2009-11-01T00:30:00Z,28.9818,-94.9186,2.0,7.86,11111222 
TABS,ioos:station:wmo:42043:1,2009-11-01T01:00:00Z,28.9818,-94.9186,2.0,7.96,11111222 
TABS,ioos:station:wmo:42043:1,2009-11-01T01:30:00Z,28.9818,-94.9186,2.0,7.97,11111222 
TABS,ioos:station:wmo:42043:1,2009-11-01T02:00:00Z,28.9818,-94.9186,2.0,7.95,11111222 
TABS,ioos:station:wmo:42043:1,2009-11-01T02:30:00Z,28.9818,-94.9186,2.0,7.88,11111222 
TABS,ioos:station:wmo:42043:1,2009-11-01T03:30:00Z,28.9818,-94.9186,2.0,7.8,11111222 
TABS,ioos:station:wmo:42043:1,2009-11-01T04:00:00Z,28.9818,-94.9186,2.0,7.95,11111222 
TABS,ioos:station:wmo:42043:1,2009-11-01T04:30:00Z,28.9818,-94.9186,2.0,7.93,11111222 
TABS,ioos:station:wmo:42043:1,2009-11-01T05:00:00Z,28.9818,-94.9186,2.0,7.76,11111222 
TABS,ioos:station:wmo:42043:1,2009-11-01T05:30:00Z,28.9818,-94.9186,2.0,7.86,11111222 
TABS,ioos:station:wmo:42043:1,2009-11-01T06:00:00Z,28.9818,-94.9186,2.0,7.8,11111222 
TABS,ioos:station:wmo:42043:1,2009-11-01T06:30:00Z,28.9818,-94.9186,2.0,7.79,11111222 
TABS,ioos:station:wmo:42043:1,2009-11-01T07:00:00Z,28.9818,-94.9186,2.0,7.83,11111222 
TABS,ioos:station:wmo:42043:1,2009-11-01T07:30:00Z,28.9818,-94.9186,2.0,7.96,11111222 
TABS,ioos:station:wmo:42043:1,2009-11-01T08:00:00Z,28.9818,-94.9186,2.0,7.94,11111222 
TABS,ioos:station:wmo:42043:1,2009-11-01T08:30:00Z,28.9818,-94.9186,2.0,7.96,11111222 
TABS,ioos:station:wmo:42043:1,2009-11-01T09:00:00Z,28.9818,-94.9186,2.0,7.91,11111222 
TABS,ioos:station:wmo:42043:1,2009-11-01T09:30:00Z,28.9818,-94.9186,2.0,7.87,11111222 
TABS,ioos:station:wmo:42043:1,2009-11-01T10:00:00Z,28.9818,-94.9186,2.0,7.87,11111222 
TABS,ioos:station:wmo:42043:1,2009-11-01T10:30:00Z,28.9818,-94.9186,2.0,7.93,11111222 
TABS,ioos:station:wmo:42043:1,2009-11-01T11:00:00Z,28.9818,-94.9186,2.0,7.85,11111222 
TABS,ioos:station:wmo:42043:1,2009-11-01T11:30:00Z,28.9818,-94.9186,2.0,7.93,11111222 
TABS,ioos:station:wmo:42043:1,2009-11-01T12:00:00Z,28.9818,-94.9186,2.0,7.8,11111222 
TABS,ioos:station:wmo:42043:1,2009-11-01T12:30:00Z,28.9818,-94.9186,2.0,7.71,11111222 
TABS,ioos:station:wmo:42043:1,2009-11-01T13:00:00Z,28.9818,-94.9186,2.0,7.74,11111222 
TABS,ioos:station:wmo:42043:1,2009-11-01T13:30:00Z,28.9818,-94.9186,2.0,7.62,11111222 
TABS,ioos:station:wmo:42043:1,2009-11-01T14:00:00Z,28.9818,-94.9186,2.0,7.48,11111222 
TABS,ioos:station:wmo:42043:1,2009-11-01T14:30:00Z,28.9818,-94.9186,2.0,7.65,11111222 
TABS,ioos:station:wmo:42043:1,2009-11-01T15:00:00Z,28.9818,-94.9186,2.0,7.67,11111222 
TABS,ioos:station:wmo:42043:1,2009-11-01T15:30:00Z,28.9818,-94.9186,2.0,7.58,11111222 
TABS,ioos:station:wmo:42043:1,2009-11-01T16:00:00Z,28.9818,-94.9186,2.0,7.62,11111222 
TABS,ioos:station:wmo:42043:1,2009-11-01T16:30:00Z,28.9818,-94.9186,2.0,7.63,11111222 
TABS,ioos:station:wmo:42043:1,2009-11-01T17:00:00Z,28.9818,-94.9186,2.0,7.65,11111222 
TABS,ioos:station:wmo:42043:1,2009-11-01T17:30:00Z,28.9818,-94.9186,2.0,7.61,11111222 
TABS,ioos:station:wmo:42043:1,2009-11-01T18:00:00Z,28.9818,-94.9186,2.0,7.64,11111222 
TABS,ioos:station:wmo:42043:1,2009-11-01T18:30:00Z,28.9818,-94.9186,2.0,7.68,11111222 
TABS,ioos:station:wmo:42043:1,2009-11-01T19:00:00Z,28.9818,-94.9186,2.0,7.6,11111222 
TABS,ioos:station:wmo:42043:1,2009-11-01T19:30:00Z,28.9818,-94.9186,2.0,7.61,11111222 
TABS,ioos:station:wmo:42043:1,2009-11-01T20:00:00Z,28.9818,-94.9186,2.0,7.62,11111222 
TABS,ioos:station:wmo:42043:1,2009-11-01T20:30:00Z,28.9818,-94.9186,2.0,7.78,11111222 
TABS,ioos:station:wmo:42043:1,2009-11-01T21:00:00Z,28.9818,-94.9186,2.0,7.78,11111222 
TABS,ioos:station:wmo:42043:1,2009-11-01T21:30:00Z,28.9818,-94.9186,2.0,7.63,11111222 
TABS,ioos:station:wmo:42043:1,2009-11-01T22:00:00Z,28.9818,-94.9186,2.0,7.69,11111222 
TABS,ioos:station:wmo:42043:1,2009-11-01T22:30:00Z,28.9818,-94.9186,2.0,7.64,11111222 
TABS,ioos:station:wmo:42043:1,2009-11-01T23:00:00Z,28.9818,-94.9186,2.0,7.76,11111222 
TABS,ioos:station:wmo:42043:1,2009-11-01T23:30:00Z,28.9818,-94.9186,2.0,7.77,11111222 
TABS,ioos:station:wmo:42043:1,2009-11-02T00:00:00Z,28.9818,-94.9186,2.0,7.83,11111222 
TABS,ioos:station:wmo:42043:1,2009-11-02T00:30:00Z,28.9818,-94.9186,2.0,7.93,11111222 
TABS,ioos:station:wmo:42043:1,2009-11-02T01:00:00Z,28.9818,-94.9186,2.0,7.94,11111222 
TABS,ioos:station:wmo:42043:1,2009-11-02T01:30:00Z,28.9818,-94.9186,2.0,7.87,11111222 
TABS,ioos:station:wmo:42043:1,2009-11-02T02:00:00Z,28.9818,-94.9186,2.0,7.78,11111222 
TABS,ioos:station:wmo:42043:1,2009-11-02T02:30:00Z,28.9818,-94.9186,2.0,7.85,11111222 
TABS,ioos:station:wmo:42043:1,2009-11-02T03:00:00Z,28.9818,-94.9186,2.0,7.79,11111222 
TABS,ioos:station:wmo:42043:1,2009-11-02T03:30:00Z,28.9818,-94.9186,2.0,7.9,11111222 
TABS,ioos:station:wmo:42043:1,2009-11-02T04:00:00Z,28.9818,-94.9186,2.0,7.82,11111222 
TABS,ioos:station:wmo:42043:1,2009-11-02T04:30:00Z,28.9818,-94.9186,2.0,7.78,11111222 
TABS,ioos:station:wmo:42043:1,2009-11-02T05:00:00Z,28.9818,-94.9186,2.0,7.83,11111222 
TABS,ioos:station:wmo:42043:1,2009-11-02T05:30:00Z,28.9818,-94.9186,2.0,7.79,11111222 
TABS,ioos:station:wmo:42043:1,2009-11-02T06:00:00Z,28.9818,-94.9186,2.0,7.73,11111222 
TABS,ioos:station:wmo:42043:1,2009-11-02T06:30:00Z,28.9818,-94.9186,2.0,7.85,11111222 
TABS,ioos:station:wmo:42043:1,2009-11-02T07:00:00Z,28.9818,-94.9186,2.0,7.73,11111222 
TABS,ioos:station:wmo:42043:1,2009-11-02T07:30:00Z,28.9818,-94.9186,2.0,7.68,11111222 
TABS,ioos:station:wmo:42043:1,2009-11-02T08:00:00Z,28.9818,-94.9186,2.0,7.84,11111222 
TABS,ioos:station:wmo:42043:1,2009-11-02T08:30:00Z,28.9818,-94.9186,2.0,8.14,11111222 
TABS,ioos:station:wmo:42043:1,2009-11-02T09:00:00Z,28.9818,-94.9186,2.0,8.12,11111222 
TABS,ioos:station:wmo:42043:1,2009-11-02T09:30:00Z,28.9818,-94.9186,2.0,7.82,11111222 
TABS,ioos:station:wmo:42043:1,2009-11-02T10:00:00Z,28.9818,-94.9186,2.0,7.48,11111222 
TABS,ioos:station:wmo:42043:1,2009-11-02T10:30:00Z,28.9818,-94.9186,2.0,7.53,11111222 
TABS,ioos:station:wmo:42043:1,2009-11-02T11:00:00Z,28.9818,-94.9186,2.0,7.43,11111222 
TABS,ioos:station:wmo:42043:1,2009-11-02T11:30:00Z,28.9818,-94.9186,2.0,7.27,11111222 
TABS,ioos:station:wmo:42043:1,2009-11-02T12:00:00Z,28.9818,-94.9186,2.0,7.26,11111222 
TABS,ioos:station:wmo:42043:1,2009-11-02T12:30:00Z,28.9818,-94.9186,2.0,7.28,11111222 
TABS,ioos:station:wmo:42043:1,2009-11-02T13:00:00Z,28.9818,-94.9186,2.0,7.14,11111222 
TABS,ioos:station:wmo:42043:1,2009-11-02T13:30:00Z,28.9818,-94.9186,2.0,7.31,11111222 
TABS,ioos:station:wmo:42043:1,2009-11-02T14:00:00Z,28.9818,-94.9186,2.0,7.17,11111222 
TABS,ioos:station:wmo:42043:1,2009-11-02T14:30:00Z,28.9818,-94.9186,2.0,7.25,11111222 
TABS,ioos:station:wmo:42043:1,2009-11-02T15:00:00Z,28.9818,-94.9186,2.0,7.32,11111222 
TABS,ioos:station:wmo:42043:1,2009-11-02T15:30:00Z,28.9818,-94.9186,2.0,7.13,11111222 
TABS,ioos:station:wmo:42043:1,2009-11-02T16:00:00Z,28.9818,-94.9186,2.0,7.21,11111222 
TABS,ioos:station:wmo:42043:1,2009-11-02T16:30:00Z,28.9818,-94.9186,2.0,7.12,11111222 
TABS,ioos:station:wmo:42043:1,2009-11-02T17:00:00Z,28.9818,-94.9186,2.0,7.06,11111222 
TABS,ioos:station:wmo:42043:1,2009-11-02T17:30:00Z,28.9818,-94.9186,2.0,7.05,11111222 
TABS,ioos:station:wmo:42043:1,2009-11-02T18:00:00Z,28.9818,-94.9186,2.0,7.01,11111222 
TABS,ioos:station:wmo:42043:1,2009-11-02T18:30:00Z,28.9818,-94.9186,2.0,6.95,11111222 
TABS,ioos:station:wmo:42043:1,2009-11-02T19:00:00Z,28.9818,-94.9186,2.0,7.01,11111222 
TABS,ioos:station:wmo:42043:1,2009-11-02T19:30:00Z,28.9818,-94.9186,2.0,6.86,11111222 
TABS,ioos:station:wmo:42043:1,2009-11-02T20:00:00Z,28.9818,-94.9186,2.0,6.93,11111222 
TABS,ioos:station:wmo:42043:1,2009-11-02T20:30:00Z,28.9818,-94.9186,2.0,6.97,11111222 
TABS,ioos:station:wmo:42043:1,2009-11-02T21:00:00Z,28.9818,-94.9186,2.0,7.04,11111222 
TABS,ioos:station:wmo:42043:1,2009-11-02T21:30:00Z,28.9818,-94.9186,2.0,7.13,11111222 
TABS,ioos:station:wmo:42043:1,2009-11-02T22:00:00Z,28.9818,-94.9186,2.0,7.22,11111222 
TABS,ioos:station:wmo:42043:1,2009-11-02T22:30:00Z,28.9818,-94.9186,2.0,7.26,11111222 
TABS,ioos:station:wmo:42043:1,2009-11-02T23:00:00Z,28.9818,-94.9186,2.0,7.31,11111222 
TABS,ioos:station:wmo:42043:1,2009-11-02T23:30:00Z,28.9818,-94.9186,2.0,7.41,11111222 
TABS,ioos:station:wmo:42043:1,2009-11-03T00:00:00Z,28.9818,-94.9186,2.0,7.44,11111222 
TABS,ioos:station:wmo:42043:1,2009-11-03T00:30:00Z,28.9818,-94.9186,2.0,7.5,11111222 
TABS,ioos:station:wmo:42043:1,2009-11-03T01:00:00Z,28.9818,-94.9186,2.0,7.59,11111222 
TABS,ioos:station:wmo:42043:1,2009-11-03T01:30:00Z,28.9818,-94.9186,2.0,7.59,11111222 
TABS,ioos:station:wmo:42043:1,2009-11-03T02:00:00Z,28.9818,-94.9186,2.0,7.56,11111222 
TABS,ioos:station:wmo:42043:1,2009-11-03T02:30:00Z,28.9818,-94.9186,2.0,7.58,11111222 
TABS,ioos:station:wmo:42043:1,2009-11-03T03:00:00Z,28.9818,-94.9186,2.0,7.53,11111222 
TABS,ioos:station:wmo:42043:1,2009-11-03T03:30:00Z,28.9818,-94.9186,2.0,7.55,11111222 
TABS,ioos:station:wmo:42043:1,2009-11-03T04:00:00Z,28.9818,-94.9186,2.0,7.53,11111222 
TABS,ioos:station:wmo:42043:1,2009-11-03T04:30:00Z,28.9818,-94.9186,2.0,7.48,11111222 
TABS,ioos:station:wmo:42043:1,2009-11-03T05:00:00Z,28.9818,-94.9186,2.0,7.51,11111222 
TABS,ioos:station:wmo:42043:1,2009-11-03T05:30:00Z,28.9818,-94.9186,2.0,7.46,11111222 
TABS,ioos:station:wmo:42043:1,2009-11-03T06:00:00Z,28.9818,-94.9186,2.0,7.45,11111222 
TABS,ioos:station:wmo:42043:1,2009-11-03T06:30:00Z,28.9818,-94.9186,2.0,7.34,11111222 
TABS,ioos:station:wmo:42043:1,2009-11-03T07:00:00Z,28.9818,-94.9186,2.0,7.35,11111222 
TABS,ioos:station:wmo:42043:1,2009-11-03T07:30:00Z,28.9818,-94.9186,2.0,7.41,11111222 
TABS,ioos:station:wmo:42043:1,2009-11-03T08:00:00Z,28.9818,-94.9186,2.0,7.3,11111222 
TABS,ioos:station:wmo:42043:1,2009-11-03T08:30:00Z,28.9818,-94.9186,2.0,7.25,11111222 
TABS,ioos:station:wmo:42043:1,2009-11-03T09:00:00Z,28.9818,-94.9186,2.0,7.41,11111222 
TABS,ioos:station:wmo:42043:1,2009-11-03T09:30:00Z,28.9818,-94.9186,2.0,7.35,11111222 
TABS,ioos:station:wmo:42043:1,2009-11-03T10:00:00Z,28.9818,-94.9186,2.0,7.59,11111222 
TABS,ioos:station:wmo:42043:1,2009-11-03T10:30:00Z,28.9818,-94.9186,2.0,7.74,11111222 
TABS,ioos:station:wmo:42043:1,2009-11-03T11:00:00Z,28.9818,-94.9186,2.0,7.81,11111222 
TABS,ioos:station:wmo:42043:1,2009-11-03T11:30:00Z,28.9818,-94.9186,2.0,8.13,11111222 
TABS,ioos:station:wmo:42043:1,2009-11-03T12:00:00Z,28.9818,-94.9186,2.0,7.87,11111222 
TABS,ioos:station:wmo:42043:1,2009-11-03T12:30:00Z,28.9818,-94.9186,2.0,7.87,11111222 
TABS,ioos:station:wmo:42043:1,2009-11-03T13:00:00Z,28.9818,-94.9186,2.0,7.93,11111222 
TABS,ioos:station:wmo:42043:1,2009-11-03T13:30:00Z,28.9818,-94.9186,2.0,7.92,11111222 
TABS,ioos:station:wmo:42043:1,2009-11-03T14:00:00Z,28.9818,-94.9186,2.0,7.91,11111222 
TABS,ioos:station:wmo:42043:1,2009-11-03T14:30:00Z,28.9818,-94.9186,2.0,7.87,11111222 
TABS,ioos:station:wmo:42043:1,2009-11-03T15:00:00Z,28.9818,-94.9186,2.0,8.1,11111222 
TABS,ioos:station:wmo:42043:1,2009-11-03T15:30:00Z,28.9818,-94.9186,2.0,8.05,11111222 
TABS,ioos:station:wmo:42043:1,2009-11-03T16:00:00Z,28.9818,-94.9186,2.0,8.11,11111222 
TABS,ioos:station:wmo:42043:1,2009-11-03T16:30:00Z,28.9818,-94.9186,2.0,8.01,11111222 
TABS,ioos:station:wmo:42043:1,2009-11-03T17:00:00Z,28.9818,-94.9186,2.0,8.07,11111222 
TABS,ioos:station:wmo:42043:1,2009-11-03T17:30:00Z,28.9818,-94.9186,2.0,8.03,11111222 
TABS,ioos:station:wmo:42043:1,2009-11-03T18:00:00Z,28.9818,-94.9186,2.0,8.2,11111222 
TABS,ioos:station:wmo:42043:1,2009-11-03T18:30:00Z,28.9818,-94.9186,2.0,8.11,11111222 
TABS,ioos:station:wmo:42043:1,2009-11-03T19:00:00Z,28.9818,-94.9186,2.0,8.12,11111222 
TABS,ioos:station:wmo:42043:1,2009-11-03T19:30:00Z,28.9818,-94.9186,2.0,8.33,11111222 
TABS,ioos:station:wmo:42043:1,2009-11-03T20:00:00Z,28.9818,-94.9186,2.0,8.29,11111222 
TABS,ioos:station:wmo:42043:1,2009-11-03T20:30:00Z,28.9818,-94.9186,2.0,8.25,11111222 
TABS,ioos:station:wmo:42043:1,2009-11-03T21:00:00Z,28.9818,-94.9186,2.0,8.31,11111222 
TABS,ioos:station:wmo:42043:1,2009-11-03T21:30:00Z,28.9818,-94.9186,2.0,8.27,11111222 
TABS,ioos:station:wmo:42043:1,2009-11-03T22:00:00Z,28.9818,-94.9186,2.0,8.24,11111222 
TABS,ioos:station:wmo:42043:1,2009-11-03T22:30:00Z,28.9818,-94.9186,2.0,8.27,11111222 
TABS,ioos:station:wmo:42043:1,2009-11-03T23:00:00Z,28.9818,-94.9186,2.0,8.27,11111222 
TABS,ioos:station:wmo:42043:1,2009-11-03T23:30:00Z,28.9818,-94.9186,2.0,8.22,11111222 
TABS,ioos:station:wmo:42043:1,2009-11-04T00:00:00Z,28.9818,-94.9186,2.0,8.16,11111222 
TABS,ioos:station:wmo:42043:1,2009-11-04T00:30:00Z,28.9818,-94.9186,2.0,8.33,11111222 
TABS,ioos:station:wmo:42043:1,2009-11-04T01:00:00Z,28.9818,-94.9186,2.0,8.1,11111222 
TABS,ioos:station:wmo:42043:1,2009-11-04T01:30:00Z,28.9818,-94.9186,2.0,8.27,11111222 
TABS,ioos:station:wmo:42043:1,2009-11-04T02:00:00Z,28.9818,-94.9186,2.0,8.37,11111222 
TABS,ioos:station:wmo:42043:1,2009-11-04T02:30:00Z,28.9818,-94.9186,2.0,8.34,11111222 
TABS,ioos:station:wmo:42043:1,2009-11-04T03:00:00Z,28.9818,-94.9186,2.0,8.26,11111222 
TABS,ioos:station:wmo:42043:1,2009-11-04T03:30:00Z,28.9818,-94.9186,2.0,8.24,11111222 
TABS,ioos:station:wmo:42043:1,2009-11-04T04:00:00Z,28.9818,-94.9186,2.0,8.09,11111222 
TABS,ioos:station:wmo:42043:1,2009-11-04T04:30:00Z,28.9818,-94.9186,2.0,7.97,11111222 
TABS,ioos:station:wmo:42043:1,2009-11-04T05:00:00Z,28.9818,-94.9186,2.0,8.04,11111222 
TABS,ioos:station:wmo:42043:1,2009-11-04T05:30:00Z,28.9818,-94.9186,2.0,8.01,11111222 
TABS,ioos:station:wmo:42043:1,2009-11-04T06:00:00Z,28.9818,-94.9186,2.0,8.13,11111222 
TABS,ioos:station:wmo:42043:1,2009-11-04T06:30:00Z,28.9818,-94.9186,2.0,7.98,11111222 
TABS,ioos:station:wmo:42043:1,2009-11-04T07:00:00Z,28.9818,-94.9186,2.0,7.97,11111222 
TABS,ioos:station:wmo:42043:1,2009-11-04T07:30:00Z,28.9818,-94.9186,2.0,8.04,11111222 
TABS,ioos:station:wmo:42043:1,2009-11-04T08:00:00Z,28.9818,-94.9186,2.0,8.01,11111222 
TABS,ioos:station:wmo:42043:1,2009-11-04T08:30:00Z,28.9818,-94.9186,2.0,8.1,11111222 
TABS,ioos:station:wmo:42043:1,2009-11-04T09:00:00Z,28.9818,-94.9186,2.0,8.34,11111222 
TABS,ioos:station:wmo:42043:1,2009-11-04T09:30:00Z,28.9818,-94.9186,2.0,8.35,11111222 
TABS,ioos:station:wmo:42043:1,2009-11-04T10:00:00Z,28.9818,-94.9186,2.0,8.71,11111222 
TABS,ioos:station:wmo:42043:1,2009-11-04T10:30:00Z,28.9818,-94.9186,2.0,8.49,11111222 
TABS,ioos:station:wmo:42043:1,2009-11-04T11:00:00Z,28.9818,-94.9186,2.0,8.51,11111222 
TABS,ioos:station:wmo:42043:1,2009-11-04T11:30:00Z,28.9818,-94.9186,2.0,8.45,11111222 
TABS,ioos:station:wmo:42043:1,2009-11-04T12:00:00Z,28.9818,-94.9186,2.0,8.46,11111222 
TABS,ioos:station:wmo:42043:1,2009-11-04T12:30:00Z,28.9818,-94.9186,2.0,8.48,11111222 
TABS,ioos:station:wmo:42043:1,2009-11-04T13:00:00Z,28.9818,-94.9186,2.0,8.38,11111222 
TABS,ioos:station:wmo:42043:1,2009-11-04T13:30:00Z,28.9818,-94.9186,2.0,8.41,11111222 
TABS,ioos:station:wmo:42043:1,2009-11-04T14:00:00Z,28.9818,-94.9186,2.0,8.45,11111222 
TABS,ioos:station:wmo:42043:1,2009-11-04T14:30:00Z,28.9818,-94.9186,2.0,8.55,11111222 
TABS,ioos:station:wmo:42043:1,2009-11-04T15:00:00Z,28.9818,-94.9186,2.0,8.57,11111222 
TABS,ioos:station:wmo:42043:1,2009-11-04T15:30:00Z,28.9818,-94.9186,2.0,8.56,11111222 
TABS,ioos:station:wmo:42043:1,2009-11-04T16:30:00Z,28.9818,-94.9186,2.0,8.69,11111222 
TABS,ioos:station:wmo:42043:1,2009-11-04T17:00:00Z,28.9818,-94.9186,2.0,8.79,11111222 
TABS,ioos:station:wmo:42043:1,2009-11-04T17:30:00Z,28.9818,-94.9186,2.0,8.6,11111222 
TABS,ioos:station:wmo:42043:1,2009-11-04T18:00:00Z,28.9818,-94.9186,2.0,8.86,11111222 
TABS,ioos:station:wmo:42043:1,2009-11-04T18:30:00Z,28.9818,-94.9186,2.0,8.72,11111222 
TABS,ioos:station:wmo:42043:1,2009-11-04T19:00:00Z,28.9818,-94.9186,2.0,8.62,11111222 
TABS,ioos:station:wmo:42043:1,2009-11-04T19:30:00Z,28.9818,-94.9186,2.0,8.77,11111222 
TABS,ioos:station:wmo:42043:1,2009-11-04T20:00:00Z,28.9818,-94.9186,2.0,8.63,11111222 
TABS,ioos:station:wmo:42043:1,2009-11-04T20:30:00Z,28.9818,-94.9186,2.0,8.65,11111222 
TABS,ioos:station:wmo:42043:1,2009-11-04T21:00:00Z,28.9818,-94.9186,2.0,8.62,11111222 
TABS,ioos:station:wmo:42043:1,2009-11-04T21:30:00Z,28.9818,-94.9186,2.0,8.65,11111222 
TABS,ioos:station:wmo:42043:1,2009-11-04T22:00:00Z,28.9818,-94.9186,2.0,8.65,11111222 
TABS,ioos:station:wmo:42043:1,2009-11-04T22:30:00Z,28.9818,-94.9186,2.0,8.63,11111222 
TABS,ioos:station:wmo:42043:1,2009-11-04T23:00:00Z,28.9818,-94.9186,2.0,8.61,11111222 
TABS,ioos:station:wmo:42043:1,2009-11-05T00:00:00Z,28.9818,-94.9186,2.0,8.81,11111222 
TABS,ioos:station:wmo:42043:1,2009-11-05T00:30:00Z,28.9818,-94.9186,2.0,8.91,11111222 
TABS,ioos:station:wmo:42043:1,2009-11-05T01:00:00Z,28.9818,-94.9186,2.0,8.78,11111222 
TABS,ioos:station:wmo:42043:1,2009-11-05T01:30:00Z,28.9818,-94.9186,2.0,8.67,11111222 
TABS,ioos:station:wmo:42043:1,2009-11-05T02:00:00Z,28.9818,-94.9186,2.0,8.78,11111222 
TABS,ioos:station:wmo:42043:1,2009-11-05T02:30:00Z,28.9818,-94.9186,2.0,8.68,11111222 
TABS,ioos:station:wmo:42043:1,2009-11-05T03:00:00Z,28.9818,-94.9186,2.0,8.61,11111222 
TABS,ioos:station:wmo:42043:1,2009-11-05T03:30:00Z,28.9818,-94.9186,2.0,8.62,11111222 
TABS,ioos:station:wmo:42043:1,2009-11-05T04:00:00Z,28.9818,-94.9186,2.0,8.69,11111222 
TABS,ioos:station:wmo:42043:1,2009-11-05T04:30:00Z,28.9818,-94.9186,2.0,8.61,11111222 
TABS,ioos:station:wmo:42043:1,2009-11-05T05:00:00Z,28.9818,-94.9186,2.0,8.65,11111222 
TABS,ioos:station:wmo:42043:1,2009-11-05T05:30:00Z,28.9818,-94.9186,2.0,8.64,11111222 
TABS,ioos:station:wmo:42043:1,2009-11-05T06:00:00Z,28.9818,-94.9186,2.0,8.73,11111222 
TABS,ioos:station:wmo:42043:1,2009-11-05T06:30:00Z,28.9818,-94.9186,2.0,8.62,11111222 
TABS,ioos:station:wmo:42043:1,2009-11-05T07:00:00Z,28.9818,-94.9186,2.0,8.57,11111222 
TABS,ioos:station:wmo:42043:1,2009-11-05T07:30:00Z,28.9818,-94.9186,2.0,8.85,11111222 
TABS,ioos:station:wmo:42043:1,2009-11-05T08:00:00Z,28.9818,-94.9186,2.0,8.61,11111222 
TABS,ioos:station:wmo:42043:1,2009-11-05T08:30:00Z,28.9818,-94.9186,2.0,8.63,11111222 
TABS,ioos:station:wmo:42043:1,2009-11-05T09:00:00Z,28.9818,-94.9186,2.0,8.59,11111222 
TABS,ioos:station:wmo:42043:1,2009-11-05T09:30:00Z,28.9818,-94.9186,2.0,8.42,11111222 
TABS,ioos:station:wmo:42043:1,2009-11-05T10:00:00Z,28.9818,-94.9186,2.0,8.69,11111222 
TABS,ioos:station:wmo:42043:1,2009-11-05T10:30:00Z,28.9818,-94.9186,2.0,8.51,11111222 
TABS,ioos:station:wmo:42043:1,2009-11-05T11:00:00Z,28.9818,-94.9186,2.0,8.46,11111222 
TABS,ioos:station:wmo:42043:1,2009-11-05T11:30:00Z,28.9818,-94.9186,2.0,8.7,11111222 
TABS,ioos:station:wmo:42043:1,2009-11-05T12:00:00Z,28.9818,-94.9186,2.0,8.44,11111222 
TABS,ioos:station:wmo:42043:1,2009-11-05T12:30:00Z,28.9818,-94.9186,2.0,8.38,11111222 
TABS,ioos:station:wmo:42043:1,2009-11-05T13:00:00Z,28.9818,-94.9186,2.0,8.33,11111222 
TABS,ioos:station:wmo:42043:1,2009-11-05T13:30:00Z,28.9818,-94.9186,2.0,8.38,11111222 
TABS,ioos:station:wmo:42043:1,2009-11-05T14:00:00Z,28.9818,-94.9186,2.0,8.37,11111222 
TABS,ioos:station:wmo:42043:1,2009-11-05T14:30:00Z,28.9818,-94.9186,2.0,8.5,11111222 
TABS,ioos:station:wmo:42043:1,2009-11-05T15:00:00Z,28.9818,-94.9186,2.0,8.37,11111222 
TABS,ioos:station:wmo:42043:1,2009-11-05T15:30:00Z,28.9818,-94.9186,2.0,8.47,11111222 
TABS,ioos:station:wmo:42043:1,2009-11-05T16:30:00Z,28.9818,-94.9186,2.0,8.32,11111222 
TABS,ioos:station:wmo:42043:1,2009-11-05T17:00:00Z,28.9818,-94.9186,2.0,8.26,11111222 
TABS,ioos:station:wmo:42043:1,2009-11-05T17:30:00Z,28.9818,-94.9186,2.0,8.28,11111222 
TABS,ioos:station:wmo:42043:1,2009-11-05T18:00:00Z,28.9818,-94.9186,2.0,8.39,11111222 
TABS,ioos:station:wmo:42043:1,2009-11-05T18:30:00Z,28.9818,-94.9186,2.0,8.49,11111222 
TABS,ioos:station:wmo:42043:1,2009-11-05T19:00:00Z,28.9818,-94.9186,2.0,8.33,11111222 
TABS,ioos:station:wmo:42043:1,2009-11-05T19:30:00Z,28.9818,-94.9186,2.0,8.4,11111222 
TABS,ioos:station:wmo:42043:1,2009-11-05T20:00:00Z,28.9818,-94.9186,2.0,8.41,11111222 
TABS,ioos:station:wmo:42043:1,2009-11-05T20:30:00Z,28.9818,-94.9186,2.0,8.54,11111222 
TABS,ioos:station:wmo:42043:1,2009-11-05T21:00:00Z,28.9818,-94.9186,2.0,8.43,11111222 
TABS,ioos:station:wmo:42043:1,2009-11-05T21:30:00Z,28.9818,-94.9186,2.0,8.58,11111222 
TABS,ioos:station:wmo:42043:1,2009-11-05T22:00:00Z,28.9818,-94.9186,2.0,8.44,11111222 
TABS,ioos:station:wmo:42043:1,2009-11-05T23:00:00Z,28.9818,-94.9186,2.0,8.45,11111222 
TABS,ioos:station:wmo:42043:1,2009-11-05T23:30:00Z,28.9818,-94.9186,2.0,8.45,11111222 
TABS,ioos:station:wmo:42043:1,2009-11-06T00:00:00Z,28.9818,-94.9186,2.0,8.77,11111222 
TABS,ioos:station:wmo:42043:1,2009-11-06T00:30:00Z,28.9818,-94.9186,2.0,8.57,11111222 
TABS,ioos:station:wmo:42043:1,2009-11-06T01:00:00Z,28.9818,-94.9186,2.0,8.39,11111222 
TABS,ioos:station:wmo:42043:1,2009-11-06T01:30:00Z,28.9818,-94.9186,2.0,8.5,11111222 
TABS,ioos:station:wmo:42043:1,2009-11-06T02:00:00Z,28.9818,-94.9186,2.0,8.45,11111222 
TABS,ioos:station:wmo:42043:1,2009-11-06T02:30:00Z,28.9818,-94.9186,2.0,8.67,11111222 
TABS,ioos:station:wmo:42043:1,2009-11-06T03:00:00Z,28.9818,-94.9186,2.0,8.36,11111222 
TABS,ioos:station:wmo:42043:1,2009-11-06T03:30:00Z,28.9818,-94.9186,2.0,8.34,11111222 
TABS,ioos:station:wmo:42043:1,2009-11-06T04:00:00Z,28.9818,-94.9186,2.0,8.49,11111222 
TABS,ioos:station:wmo:42043:1,2009-11-06T04:30:00Z,28.9818,-94.9186,2.0,8.35,11111222 
TABS,ioos:station:wmo:42043:1,2009-11-06T05:00:00Z,28.9818,-94.9186,2.0,8.3,11111222 
TABS,ioos:station:wmo:42043:1,2009-11-06T05:30:00Z,28.9818,-94.9186,2.0,8.41,11111222 
TABS,ioos:station:wmo:42043:1,2009-11-06T06:00:00Z,28.9818,-94.9186,2.0,8.31,11111222 
TABS,ioos:station:wmo:42043:1,2009-11-06T06:30:00Z,28.9818,-94.9186,2.0,8.38,11111222 
TABS,ioos:station:wmo:42043:1,2009-11-06T07:00:00Z,28.9818,-94.9186,2.0,8.39,11111222 
TABS,ioos:station:wmo:42043:1,2009-11-06T07:30:00Z,28.9818,-94.9186,2.0,8.31,11111222 
TABS,ioos:station:wmo:42043:1,2009-11-06T08:00:00Z,28.9818,-94.9186,2.0,8.28,11111222 
TABS,ioos:station:wmo:42043:1,2009-11-06T08:30:00Z,28.9818,-94.9186,2.0,8.23,11111222 
TABS,ioos:station:wmo:42043:1,2009-11-06T09:00:00Z,28.9818,-94.9186,2.0,8.18,11111222 
TABS,ioos:station:wmo:42043:1,2009-11-06T09:30:00Z,28.9818,-94.9186,2.0,8.51,11111222 
TABS,ioos:station:wmo:42043:1,2009-11-06T10:00:00Z,28.9818,-94.9186,2.0,8.45,11111222 
TABS,ioos:station:wmo:42043:1,2009-11-06T10:30:00Z,28.9818,-94.9186,2.0,8.24,11111222 
TABS,ioos:station:wmo:42043:1,2009-11-06T11:00:00Z,28.9818,-94.9186,2.0,8.5,11111222 
TABS,ioos:station:wmo:42043:1,2009-11-06T11:30:00Z,28.9818,-94.9186,2.0,8.2,11111222 
TABS,ioos:station:wmo:42043:1,2009-11-06T12:00:00Z,28.9818,-94.9186,2.0,8.13,11111222 
TABS,ioos:station:wmo:42043:1,2009-11-06T12:30:00Z,28.9818,-94.9186,2.0,8.22,11111222 
TABS,ioos:station:wmo:42043:1,2009-11-06T13:00:00Z,28.9818,-94.9186,2.0,8.15,11111222 
TABS,ioos:station:wmo:42043:1,2009-11-06T13:30:00Z,28.9818,-94.9186,2.0,8.12,11111222 
TABS,ioos:station:wmo:42043:1,2009-11-06T14:00:00Z,28.9818,-94.9186,2.0,8.05,11111222 
TABS,ioos:station:wmo:42043:1,2009-11-06T14:30:00Z,28.9818,-94.9186,2.0,8.03,11111222 
TABS,ioos:station:wmo:42043:1,2009-11-06T15:00:00Z,28.9818,-94.9186,2.0,8.14,11111222 
TABS,ioos:station:wmo:42043:1,2009-11-06T15:30:00Z,28.9818,-94.9186,2.0,8.22,11111222 
TABS,ioos:station:wmo:42043:1,2009-11-06T16:00:00Z,28.9818,-94.9186,2.0,8.07,11111222 
TABS,ioos:station:wmo:42043:1,2009-11-06T16:30:00Z,28.9818,-94.9186,2.0,7.86,11111222 
TABS,ioos:station:wmo:42043:1,2009-11-06T17:00:00Z,28.9818,-94.9186,2.0,7.9,11111222 
TABS,ioos:station:wmo:42043:1,2009-11-06T17:30:00Z,28.9818,-94.9186,2.0,7.82,11111222 
TABS,ioos:station:wmo:42043:1,2009-11-06T18:00:00Z,28.9818,-94.9186,2.0,7.86,11111222 
TABS,ioos:station:wmo:42043:1,2009-11-06T18:30:00Z,28.9818,-94.9186,2.0,7.89,11111222 
TABS,ioos:station:wmo:42043:1,2009-11-06T19:00:00Z,28.9818,-94.9186,2.0,7.93,11111222 
TABS,ioos:station:wmo:42043:1,2009-11-06T19:30:00Z,28.9818,-94.9186,2.0,7.87,11111222 